EN

Hourly Weather Pajaki

Today, 19 April, Monday

Time Temperature Precipitation Wind Pressure Humidity
00:00 +4°C° 0 mm 0 mps 720 mmHg 93%
01:00 +4°C° 0 mm 0 mps 720 mmHg 93%
02:00 +3°C° 0 mm 0 mps 719 mmHg 93%
03:00 +3°C° 0 mm 0 mps 719 mmHg 93%
04:00 +4°C° 0 mm 1 mps 719 mmHg 94%
05:00 +5°C° 0.2 mm 1 mps 719 mmHg 93%
06:00 +5°C° 0.2 mm 1 mps 719 mmHg 93%
07:00 +6°C° 0 mm 1 mps 719 mmHg 93%
08:00 +6°C° 0.4 mm 1 mps 719 mmHg 93%
09:00 +6°C° 0.4 mm 1 mps 719 mmHg 94%
10:00 +6°C° 0.4 mm 1 mps 719 mmHg 94%
11:00 +6°C° 0.3 mm 1 mps 719 mmHg 94%
12:00 +7°C° 0.3 mm 1 mps 719 mmHg 93%
13:00 +7°C° 0.3 mm 1 mps 719 mmHg 93%
14:00 +7°C° 0.2 mm 1 mps 719 mmHg 91%
15:00 +8°C° 0.2 mm 1 mps 718 mmHg 90%
16:00 +7°C° 0.2 mm 0 mps 718 mmHg 88%
17:00 +6°C° 0.1 mm 0 mps 718 mmHg 91%
18:00 +6°C° 0.1 mm 0 mps 718 mmHg 93%
19:00 +6°C° 0.1 mm 0 mps 718 mmHg 95%
20:00 +5°C° 0.1 mm 0 mps 718 mmHg 95%
21:00 +5°C° 0.1 mm 0 mps 718 mmHg 96%
22:00 +5°C° 0.1 mm 0 mps 718 mmHg 96%
23:00 +4°C° 0 mm 0 mps 717 mmHg 96%

Tomorrow, 20 April, Tuesday

Time Temperature Precipitation Wind Pressure Humidity
00:00 +4°C° 0 mm 0 mps 717 mmHg 96%
01:00 +3°C° 0 mm 0 mps 717 mmHg 96%
02:00 +3°C° 0 mm 0 mps 717 mmHg 96%
03:00 +3°C° 0 mm 0 mps 717 mmHg 97%
04:00 +2°C° 0 mm 0 mps 717 mmHg 97%
05:00 +4°C° 0 mm 1 mps 717 mmHg 96%
06:00 +5°C° 0 mm 1 mps 717 mmHg 94%
07:00 +6°C° 0 mm 1 mps 718 mmHg 93%
08:00 +7°C° 0.1 mm 1 mps 718 mmHg 87%
09:00 +8°C° 0.1 mm 1 mps 718 mmHg 81%
10:00 +8°C° 0.1 mm 2 mps 718 mmHg 75%
11:00 +9°C° 0.2 mm 2 mps 717 mmHg 71%
12:00 +10°C° 0.2 mm 2 mps 717 mmHg 67%
13:00 +10°C° 0.2 mm 2 mps 717 mmHg 63%
14:00 +10°C° 0.1 mm 2 mps 717 mmHg 64%
15:00 +10°C° 0.1 mm 2 mps 717 mmHg 65%
16:00 +10°C° 0.1 mm 2 mps 717 mmHg 66%
17:00 +10°C° 0.1 mm 1 mps 717 mmHg 71%
18:00 +8°C° 0.1 mm 1 mps 717 mmHg 76%
19:00 +6°C° 0.1 mm 0 mps 717 mmHg 81%
20:00 +6°C° 0 mm 1 mps 717 mmHg 83%
21:00 +6°C° 0 mm 1 mps 717 mmHg 85%
22:00 +5°C° 0 mm 1 mps 717 mmHg 87%
23:00 +5°C° 0 mm 1 mps 717 mmHg 87%

Day after tomorrow, 21 April, Wednesday

Time Temperature Precipitation Wind Pressure Humidity
00:00 +5°C° 0 mm 1 mps 717 mmHg 88%
01:00 +4°C° 0 mm 1 mps 717 mmHg 88%
02:00 +4°C° 0 mm 1 mps 717 mmHg 89%
03:00 +4°C° 0 mm 1 mps 717 mmHg 89%
04:00 +3°C° 0 mm 1 mps 717 mmHg 89%
05:00 +5°C° 0 mm 1 mps 717 mmHg 85%
06:00 +6°C° 0 mm 1 mps 717 mmHg 80%
07:00 +8°C° 0 mm 1 mps 717 mmHg 76%
08:00 +9°C° 0 mm 1 mps 717 mmHg 72%
09:00 +9°C° 0 mm 2 mps 717 mmHg 68%
10:00 +10°C° 0 mm 2 mps 717 mmHg 65%
11:00 +12°C° 0.3 mm 2 mps 717 mmHg 65%
12:00 +11°C° 0.3 mm 3 mps 716 mmHg 65%
13:00 +12°C° 0.3 mm 4 mps 716 mmHg 65%
14:00 +12°C° 0.6 mm 4 mps 716 mmHg 68%
15:00 +12°C° 0.6 mm 4 mps 716 mmHg 71%
16:00 +11°C° 0.6 mm 4 mps 716 mmHg 74%
17:00 +10°C° 0.4 mm 3 mps 716 mmHg 79%
18:00 +8°C° 0.4 mm 3 mps 716 mmHg 84%
19:00 +7°C° 0.4 mm 2 mps 716 mmHg 89%
20:00 +6°C° 0 mm 2 mps 716 mmHg 90%
21:00 +6°C° 0 mm 2 mps 717 mmHg 90%
22:00 +5°C° 0 mm 2 mps 717 mmHg 91%
23:00 +5°C° 0 mm 2 mps 717 mmHg 91%

22 April, Thursday

Time Temperature Precipitation Wind Pressure Humidity
00:00 +5°C° 0 mm 2 mps 717 mmHg 91%
01:00 +5°C° 0 mm 2 mps 717 mmHg 90%
02:00 +4°C° 0 mm 2 mps 717 mmHg 91%
03:00 +5°C° 0 mm 1 mps 716 mmHg 91%
04:00 +5°C° 0 mm 1 mps 716 mmHg 91%
05:00 +6°C° 0 mm 1 mps 717 mmHg 89%
06:00 +7°C° 0 mm 1 mps 717 mmHg 87%
07:00 +8°C° 0 mm 1 mps 717 mmHg 86%
08:00 +8°C° 0.2 mm 1 mps 717 mmHg 85%
09:00 +7°C° 0.2 mm 2 mps 717 mmHg 84%
10:00 +8°C° 0.2 mm 2 mps 717 mmHg 83%
11:00 +7°C° 0.5 mm 2 mps 717 mmHg 86%
12:00 +7°C° 0.5 mm 2 mps 717 mmHg 89%
13:00 +6°C° 0.5 mm 2 mps 717 mmHg 92%
14:00 +6°C° 0.1 mm 2 mps 717 mmHg 93%
15:00 +5°C° 0.1 mm 2 mps 717 mmHg 93%
16:00 +6°C° 0.1 mm 1 mps 717 mmHg 93%
17:00 +6°C° 0.1 mm 1 mps 718 mmHg 92%
18:00 +5°C° 0.1 mm 1 mps 718 mmHg 92%
19:00 +5°C° 0.1 mm 1 mps 718 mmHg 91%
20:00 +4°C° 0 mm 1 mps 718 mmHg 90%
21:00 +3°C° 0 mm 2 mps 718 mmHg 89%
22:00 +2°C° 0 mm 2 mps 719 mmHg 88%
23:00 +1°C° 0 mm 3 mps 719 mmHg 86%

23 April, Friday

Time Temperature Precipitation Wind Pressure Humidity
00:00 +1°C° 0 mm 3 mps 719 mmHg 83%
01:00 +1°C° 0 mm 3 mps 719 mmHg 81%
02:00 0°C° 0 mm 3 mps 719 mmHg 83%
03:00 0°C° 0 mm 3 mps 719 mmHg 85%
04:00 0°C° 0 mm 3 mps 719 mmHg 86%
05:00 0°C° 0 mm 3 mps 720 mmHg 85%
06:00 +1°C° 0 mm 3 mps 720 mmHg 84%
07:00 +1°C° 0 mm 3 mps 720 mmHg 83%
08:00 +2°C° 0 mm 3 mps 721 mmHg 79%
09:00 +3°C° 0 mm 3 mps 721 mmHg 75%
10:00 +3°C° 0 mm 3 mps 721 mmHg 71%
11:00 +4°C° 0.1 mm 3 mps 721 mmHg 71%
12:00 +4°C° 0.1 mm 4 mps 721 mmHg 71%
13:00 +5°C° 0.1 mm 4 mps 721 mmHg 71%
14:00 +5°C° 0.3 mm 4 mps 721 mmHg 72%
15:00 +5°C° 0.3 mm 4 mps 721 mmHg 72%
16:00 +5°C° 0.3 mm 3 mps 721 mmHg 72%
17:00 +3°C° 0.1 mm 3 mps 722 mmHg 78%
18:00 +3°C° 0.1 mm 2 mps 722 mmHg 84%
19:00 +3°C° 0.1 mm 1 mps 722 mmHg 90%
20:00 +2°C° 0 mm 2 mps 722 mmHg 91%
21:00 +1°C° 0 mm 2 mps 722 mmHg 91%
22:00 -1°C° 0 mm 2 mps 722 mmHg 91%
23:00 -1°C° 0 mm 2 mps 722 mmHg 91%

24 April, Saturday

Time Temperature Precipitation Wind Pressure Humidity
00:00 -1°C° 0 mm 2 mps 721 mmHg 91%
01:00 -1°C° 0 mm 2 mps 721 mmHg 90%
02:00 -1°C° 0 mm 2 mps 721 mmHg 89%
03:00 -1°C° 0 mm 2 mps 720 mmHg 88%
04:00 -1°C° 0 mm 3 mps 720 mmHg 87%
05:00 0°C° 0.1 mm 3 mps 720 mmHg 87%
06:00 +1°C° 0.1 mm 3 mps 720 mmHg 88%
07:00 +2°C° 0.1 mm 3 mps 720 mmHg 88%
08:00 +3°C° 0.3 mm 3 mps 720 mmHg 84%
09:00 +3°C° 0.3 mm 4 mps 720 mmHg 80%
10:00 +4°C° 0.3 mm 4 mps 720 mmHg 76%
11:00 +4°C° 0.5 mm 4 mps 721 mmHg 75%
12:00 +4°C° 0.5 mm 4 mps 721 mmHg 74%
13:00 +4°C° 0.5 mm 4 mps 721 mmHg 72%
14:00 +4°C° 0.4 mm 4 mps 721 mmHg 75%
15:00 +3°C° 0.4 mm 4 mps 721 mmHg 78%
16:00 +3°C° 0.4 mm 3 mps 721 mmHg 81%
17:00 +2°C° 0.3 mm 3 mps 721 mmHg 83%
18:00 +2°C° 0.3 mm 2 mps 722 mmHg 86%
19:00 +1°C° 0.3 mm 2 mps 722 mmHg 89%
20:00 -1°C° 0.1 mm 2 mps 723 mmHg 90%
21:00 -1°C° 0.1 mm 2 mps 723 mmHg 90%
22:00 -2°C° 0.1 mm 2 mps 723 mmHg 90%
23:00 -2°C° 0 mm 2 mps 723 mmHg 90%
Show more

We Need Your Consent

Meteoprog and our Service Providers may store and access personal data such as cookies, device identifiers or other similar technologies on your device and process such data to personalise content and ads, as well as provide social media features and to analyse the traffic.

  • Store and/or access information on your device

    Cookies, device identifiers or other information can be stored or accessed on your device for the purposes indicated above.

  • Personalised ads and content, ad and content measurement, audience insights, and products development

    Ads and content can be personalised based on a profile. More data can be added to better personalise ads and content. Ad and content performance can be measured. Insights about the audience who saw the ads and content can be derived. Such data can be used to develop or improve user’s experience, systems and software.

By clicking ‘I Agree’ you will allow the use of indicated cookies, device identifiers, web beacons or other similar technologies. Your settings can be changed in the browser on your device.

For certain purposes, legitimate interests may be relied on, rather than consent. You can read more about this in our Privacy and Cookie Policy.